Tracking 19476 objects as of 17-Jan-2019
HD Live streaming from Space Station
objects crossing your sky now

STPSAT-5

Track STPSAT-5 now!
10-day predictions


NORAD ID: 43762
Int'l Code: 2018-099E
Perigee: 577.8 km
Apogee: 598.0 km
Inclination: 97.8 °
Period: 96.3 minutes
Semi major axis: 6958 km
RCS: Unknown
Launch date: December 3, 2018
Source: United States (US)
Launch site: AIR FORCE WESTERN TEST RANGE (AFWTR)
aabbcc
Your satellite tracking list
Your tracking list is empty




NASA's NSSDC Master Catalog

Two Line Element Set (TLE):
1 43762U 18099E   19016.84553690 -.00000355  00000-0 -26737-4 0  9990
2 43762  97.7641  90.5989 0014528 117.4981 242.7718 14.95511611  6583
Source of the keplerian elements: AFSPC